Weather History for KRBG - December, 2013

Change the Weather History Date:

Wednesday, December 18, 2013

  Actual Average Record
Temperature  
Mean Temperature 38 °F 42 °F  
Max Temperature 42 °F 47 °F 65 °F (1994)
Min Temperature 33 °F 36 °F 22 °F (1988)
Degree Days  
Heating Degree Days 27 23  
Month to date heating degree days 524 408  
Since 1 July heating degree days 1483 1337  
Cooling Degree Days 0 0  
Month to date cooling degree days 0 0  
Year to date cooling degree days 823 480  
Moisture  
Dew Point 36 °F    
Average Humidity 93    
Maximum Humidity 100    
Minimum Humidity 85    
Precipitation  
Precipitation 0.16 in 0.24 in 1.12 in (1967)
Month to date precipitation 0.56 3.56  
Year to date precipitation 15.95 33.30  
Sea Level Pressure  
Sea Level Pressure 30.11 in    
Wind  
Wind Speed 2 mph (NNW)    
Max Wind Speed 15 mph    
Max Gust Speed 20 mph    
Visibility 4 miles    
Events Fog , Rain    
T = Trace of Precipitation, MM = Missing Value Source: NWS Daily Summary

Daily Weather History Graph

Daily Weather History Graph

Search for Another Location

Airport or City:

Trip Planner

Search our weather history database for the weather conditions in past years. The results will help you decide how hot, cold, wet, or windy it might be!

Date:

Astronomy

Dec. 18, 2013 Rise Set
Actual Time 7:40 AM PST 4:39 PM PST
Civil Twilight 7:08 AM PST 5:12 PM PST
Nautical Twilight 6:32 AM PST 5:48 PM PST
Astronomical Twilight 5:57 AM PST 6:23 PM PST
Moon 6:19 PM PST (12/18) 8:22 AM PST (12/18)
Length of Visible Light 10h 04m
Length of Day
8h 58m
Full, 98% of the Moon is Illuminated
Dec 18
Full
Dec 25
Last Quarter
Jan 1
New
Jan 7
First Quarter
Jan 15
Full

Hourly Weather History & Observations

Time (PST) Temp. Windchill Dew Point Humidity Pressure Visibility Wind Dir Wind Speed Gust Speed Precip Events Conditions
12:53 AM 33.1 °F - 33.1 °F 100% 30.20 in 0.2 mi Calm Calm - N/A Fog Fog
1:53 AM 33.1 °F - 32.0 °F 96% 30.20 in 0.2 mi Calm Calm - N/A Fog Fog
2:53 AM 33.1 °F - 33.1 °F 100% 30.20 in 0.2 mi Calm Calm - N/A Fog Fog
3:20 AM 33.1 °F - 33.1 °F 100% 30.19 in 0.5 mi Calm Calm - N/A Fog Fog
3:53 AM 33.1 °F - 33.1 °F 100% 30.20 in 0.2 mi Calm Calm - N/A Fog Fog
4:11 AM 33.1 °F - 33.1 °F 100% 30.17 in 0.5 mi Calm Calm - N/A Fog Fog
4:24 AM 33.1 °F - 33.1 °F 100% 30.17 in 0.2 mi Calm Calm - N/A Fog Fog
4:36 AM 33.1 °F - 33.1 °F 100% 30.17 in 0.5 mi Calm Calm - N/A Fog Fog
4:53 AM 33.1 °F - 33.1 °F 100% 30.18 in 0.5 mi Calm Calm - N/A Fog Fog
5:21 AM 33.1 °F - 33.1 °F 100% 30.16 in 1.0 mi Calm Calm - N/A   Mist
5:28 AM 33.1 °F - 33.1 °F 100% 30.16 in 0.8 mi Calm Calm - N/A   Mist
5:37 AM 33.1 °F - 32.0 °F 96% 30.16 in 1.0 mi Calm Calm - N/A   Overcast
5:53 AM 33.1 °F - 33.1 °F 100% 30.17 in 1.0 mi Calm Calm - N/A   Overcast
6:27 AM 33.1 °F 30.0 °F 32.0 °F 96% 30.17 in 0.8 mi NE 3.5 mph - N/A   Overcast
6:37 AM 33.1 °F - 33.1 °F 100% 30.16 in 1.0 mi Calm Calm - N/A   Overcast
6:48 AM 33.8 °F 30.8 °F 33.8 °F 100% 30.15 in 0.8 mi South 3.5 mph - N/A   Mist
6:53 AM 33.1 °F - 33.1 °F 100% 30.17 in 0.5 mi Calm Calm - N/A Fog Fog
7:17 AM 33.1 °F 28.7 °F 32.0 °F 96% 30.15 in 2.0 mi SSE 4.6 mph - N/A   Overcast
7:25 AM 33.1 °F - 33.1 °F 100% 30.15 in 10.0 mi Calm Calm - N/A   Overcast
7:53 AM 33.1 °F - 32.0 °F 96% 30.17 in 7.0 mi Calm Calm - N/A   Overcast
8:53 AM 34.0 °F - 33.1 °F 96% 30.16 in 3.0 mi Calm Calm - N/A   Overcast
9:06 AM 34.0 °F - 33.1 °F 96% 30.14 in 1.8 mi Calm Calm - N/A   Overcast
9:14 AM 34.0 °F - 33.1 °F 96% 30.14 in 3.0 mi Calm Calm - N/A   Overcast
9:53 AM 35.1 °F - 33.1 °F 92% 30.15 in 10.0 mi Calm Calm - N/A   Overcast
10:18 AM 36.0 °F - 34.0 °F 93% 30.13 in 10.0 mi Calm Calm - N/A   Overcast
10:53 AM 37.0 °F - 34.0 °F 89% 30.14 in 10.0 mi Calm Calm - N/A   Overcast
11:53 AM 37.0 °F - 35.1 °F 93% 30.12 in 8.0 mi North - - N/A   Overcast
12:53 PM 39.0 °F 36.8 °F 36.0 °F 89% 30.09 in 4.0 mi WNW 3.5 mph - N/A   Overcast
1:09 PM 37.9 °F 33.5 °F 37.0 °F 97% 30.06 in 1.8 mi NW 5.8 mph - N/A   Overcast
1:40 PM 39.0 °F - 37.0 °F 93% 30.05 in 2.5 mi Calm Calm - 0.00 in   Overcast
1:53 PM 39.0 °F - 37.9 °F 96% 30.06 in 1.8 mi Calm Calm - 0.00 in   Overcast
2:05 PM 39.0 °F - 37.9 °F 96% 30.05 in 2.0 mi Calm Calm - N/A   Overcast
2:17 PM 39.9 °F - 37.9 °F 93% 30.05 in 5.0 mi Calm Calm - N/A   Overcast
2:38 PM 39.0 °F - 37.9 °F 96% 30.04 in 2.5 mi Calm Calm - N/A   Overcast
2:50 PM 39.2 °F - 37.4 °F 93% 30.04 in 3.0 mi Calm Calm - N/A   Overcast
2:53 PM 39.9 °F - 37.9 °F 93% 30.05 in 3.0 mi Calm Calm - N/A   Overcast
3:53 PM 39.9 °F 37.8 °F 37.9 °F 93% 30.06 in 7.0 mi SW 3.5 mph - N/A   Overcast
4:53 PM 39.9 °F - 37.9 °F 93% 30.06 in 10.0 mi Calm Calm - N/A   Overcast
5:46 PM 39.9 °F - 39.0 °F 97% 30.04 in 1.8 mi Calm Calm - 0.00 in Rain Light Rain
5:53 PM 39.9 °F - 39.0 °F 97% 30.06 in 1.8 mi Calm Calm - 0.01 in Rain Light Rain
6:30 PM 39.9 °F - 39.9 °F 100% 30.04 in 1.5 mi Calm Calm - 0.03 in Rain Light Rain
6:41 PM 39.9 °F - 39.9 °F 100% 30.04 in 1.5 mi Calm Calm - 0.04 in Rain Light Rain
6:51 PM 39.2 °F - 39.2 °F 100% 30.04 in 1.8 mi Calm Calm - 0.05 in Rain Light Rain
6:53 PM 39.9 °F 37.8 °F 39.0 °F 97% 30.06 in 2.0 mi North 3.5 mph - 0.06 in Rain Light Rain
6:57 PM 39.9 °F - 39.0 °F 97% 30.04 in 2.0 mi Calm Calm - 0.01 in Rain Rain
7:06 PM 41.0 °F - 39.9 °F 96% 30.04 in 3.0 mi Calm Calm - 0.02 in Rain Rain
7:23 PM 41.0 °F - 39.9 °F 96% 30.04 in 5.0 mi Calm Calm - 0.02 in   Overcast
7:53 PM 41.0 °F 39.0 °F 39.0 °F 93% 30.06 in 9.0 mi North 3.5 mph - 0.02 in   Overcast
8:02 PM 41.0 °F 38.0 °F 39.9 °F 96% 30.05 in 9.0 mi North 4.6 mph - N/A   Overcast
8:18 PM 42.1 °F 38.4 °F 39.0 °F 89% 30.05 in 10.0 mi North 5.8 mph - N/A   Overcast
8:43 PM 39.9 °F 37.8 °F 39.0 °F 97% 30.05 in 6.0 mi WSW 3.5 mph - N/A   Overcast
8:53 PM 39.9 °F - 39.0 °F 97% 30.07 in 6.0 mi Calm Calm - N/A   Overcast
9:15 PM 39.9 °F - 39.0 °F 97% 30.07 in 6.0 mi Calm Calm - N/A   Overcast
9:53 PM 41.0 °F 36.4 °F 39.0 °F 93% 30.08 in 10.0 mi NNE 6.9 mph - N/A   Overcast
10:53 PM 41.0 °F 37.1 °F 39.0 °F 93% 30.11 in 8.0 mi North 5.8 mph - 0.03 in Rain Light Rain
11:34 PM 41.0 °F 37.1 °F 39.0 °F 93% 30.10 in 10.0 mi North 5.8 mph - 0.01 in   Overcast
11:53 PM 41.0 °F 34.7 °F 37.9 °F 89% 30.12 in 6.0 mi North 10.4 mph - 0.03 in Rain Rain